     2              OBSERVATION DATA    GPS                 RINEX VERSION / TYPE
TRRINEXO V1.7 IGPP 09-AUG-91 10:46                          PGM / RUN BY / DATE
                                                            COMMENT
Rinex conversion of GPS Trimble data                        COMMENT
Original Marker Name: EN01                                  COMMENT
Campaign Name: Guadalupe Island 1991                        COMMENT
4-Character Station Name: EN01                              COMMENT
6-Character Antenna Code: TRMSST                            COMMENT
Vertical Measurement Point: BGP                             COMMENT
Vertical Offset to Rinex Ref. Point: 0.0597                 COMMENT
Radial Measurement Point: NGP                               COMMENT
Radial Offset to Rinex Ref. Point: 0.2334                   COMMENT
Antenna Height from Field Measurement: 1.4020 m             COMMENT
Additional Antenna Identification Info.:                    COMMENT
Model 14532.00                                              COMMENT
Original XYZ: -2433342.5460 -4844939.3391 3348395.0176      COMMENT
New XYZ position is based on association with SCEC monument COMMENT
E1C2W4P4+0011. Position of that monument is believed to be  COMMENT
valid to within 1 m horizontally; vertical accuracy         COMMENT
should be no worse than 3-times this value.                 COMMENT
                                                            COMMENT
Revised Rinex header created by UCSD GPS archive for        COMMENT
GSAC on 01-Dec-2001 (2001:335) 00:22:47 GMT                 COMMENT
For assistance contact dagnew@ucsd.edu                      COMMENT
or anderson@python.ucsd.edu                                 COMMENT
                                                            COMMENT
3035-S ??                                                   MARKER NAME
CICE CICESE                                                 OBSERVER / AGENCY
494 TRIMBLE 4000 SST 4.11                                   REC # / TYPE / VERS
37 TR 4000SST L1/L2 GEO                                     ANT # / TYPE
 -2433336.7243 -4844928.8169  3348395.2567                  APPROX POSITION XYZ
        1.3227        0.0000        0.0000                  ANTENNA: DELTA H/E/N
     1     2     0                                          WAVELENGTH FACT L1/2
     3    C1    L1    L2                                    # / TYPES OF OBSERV
     0                                                      INTERVAL
  1991     3    13    23    16   33.000000                  TIME OF FIRST OBS
  1991     3    14     0    44    6.000000                  TIME OF LAST OBS
                                                            END OF HEADER
 91  3 13 23 16 33.0000000  0  5 18  2 19 11 16
  21346970.289           -.584 7
  22833870.391           -.11316
  21173671.289           -.02916
  23198112.047           -.86016
  24407089.664           -.46913
 91  3 13 23 16 34.0000000  0  5 18  2 19 11 16
  21347181.047        1105.972 7
  22833229.930       -3367.454 6
  21173521.445        -780.559 6
  23197789.906       -1683.313 6
  24406673.727       -2183.798 4
 91  3 13 23 16 35.0000000  0  5 18  2 19 11 16
  21347392.281        2213.059 7
  22832589.039       -6734.422 6
  21173368.453       -1560.849 7
  23197469.781       -3365.091 6
  24406258.344       -4366.508 4
 91  3 13 23 16 36.0000000  0  5 18  2 19 11 16
  21347602.633        3320.581 7
  22831947.578      -10101.115 6
  21173225.289       -2341.000 6
  23197152.234       -5046.276 6
  24405847.828       -6548.693 3
 91  3 13 23 16 37.0000000  0  5 18  2 19 11 16
  21347813.000        4428.523 7
  22831307.461      -13467.563 6
  21173077.367       -3121.041 6
  23196830.672       -6726.900 6
  24405429.602       -8730.372 3
 91  3 13 23 16 38.0000000  0  5 18  2 19 11 16
  21348024.672        5537.024 7
  22830667.320      -16833.623 6
  21172924.117       -3900.822 7
  23196512.852       -8406.817 6
  24405012.320      -10911.412 3
 91  3 13 23 16 39.0000000  0  5 18  2 19 11 16
  21348234.992        6646.067 7
  22830025.922      -20199.304 6
  21172778.867       -4680.361 6
  23196192.039      -10086.047 6
  24404597.594      -13091.825 3
 91  3 13 23 16 40.0000000  0  5 18  2 19 11 16
  21348447.258        7755.544 7
  22829386.133      -23564.706 6
  21172628.523       -5459.755 7
  23195872.555      -11764.679 6
  24404181.273      -15271.706 3
 91  3 13 23 16 41.0000000  0  5 18  2 19 11 16
  21348658.609        8865.515 7
  22828747.180      -26929.791 6
  21172484.242       -6238.962 6
  23195551.953      -13442.681 6
  24403765.836      -17451.017 3
 91  3 13 23 16 42.0000000  0  5 18  2 19 11 16
  21348869.867        9975.918 7
  22828106.078      -30294.601 6
  21172335.859       -7018.035 6
  23195232.281      -15120.089 6
  24403354.664      -19629.800 3
 91  3 13 23 16 43.0000000  0  5 18  2 19 11 16
  21349080.828       11086.871 7
  22827467.266      -33659.035 6
  21172187.664       -7796.862 6
  23194917.211      -16796.811 6
  24402939.891      -21807.950 3
 91  3 13 23 16 44.0000000  0  5 18  2 19 11 16
  21349292.320       12198.342 7
  22826825.000      -37023.121 6
  21172039.266       -8575.475 6
  23194594.703      -18472.868 6
  24402523.359      -23985.504 3
 91  3 13 23 16 45.0000000  0  5 18  2 19 11 16
  21349504.453       13310.273 7
  22826184.359      -40386.913 6
  21171890.547       -9353.912 6
  23194276.820      -20148.311 6
  24402110.125      -26162.505 3
 91  3 13 23 16 46.0000000  0  5 18  2 19 11 16
  21349716.602       14422.686 7
  22825543.563      -43750.384 6
  21171741.914      -10132.174 6
  23193958.594      -21823.128 6
  24401699.016      -28338.931 3
 91  3 13 23 16 47.0000000  0  5 18  2 19 11 16
  21349928.320       15535.615 7
  22824904.359      -47113.508 6
  21171595.914      -10910.224 6
  23193639.742      -23497.274 6
  24401282.641      -30514.763 3
 91  3 13 23 16 48.0000000  0  5 18  2 19 11 16
  21350139.008       16649.085 7
  22824265.227      -50476.255 6
  21171446.641      -11688.017 6
  23193322.203      -25170.723 6
  24400866.984      -32689.965 3
 91  3 13 23 16 49.0000000  0  5 18  2 19 11 16
  21350350.430       17762.929 7
  22823625.016      -53838.796 6
  21171300.258      -12465.737 6
  23193003.039      -26843.639 6
  24400456.055      -34864.700 3
 91  3 13 23 16 50.0000000  0  5 18  2 19 11 16
  21350562.281       18877.175 7
  22822986.344      -57201.093 6
  21171146.070      -13243.345 6
  23192685.750      -28516.004 6
  24400040.969      -37038.941 3
 91  3 13 23 16 51.0000000  0  5 18  2 19 11 16
  21350775.461       19991.994 7
  22822346.273      -60562.977 6
  21171000.547      -14020.669 6
  23192365.344      -30187.628 6
  24399628.273      -39212.507 3
 91  3 13 23 16 52.0000000  0  5 18  2 19 11 16
  21350987.656       21107.440 7
  22821705.313      -63924.402 6
  21170852.672      -14797.658 6
  23192047.414      -31858.480 6
  24399213.688      -41385.354 3
 91  3 13 23 16 53.0000000  0  5 18  2 19 11 16
  21351200.859       22223.431 7
  22821066.063      -67285.451 6
  21170704.047      -15574.401 6
  23191732.023      -33528.631 6
  24398801.273      -43557.565 3
 91  3 13 23 16 54.0000000  0  5 18  2 19 11 16
  21351412.852       23339.873 7
  22820426.891      -70646.214 6
  21170559.211      -16350.983 6
  23191413.516      -35198.173 6
  24398387.602      -45729.225 3
 91  3 13 23 16 55.0000000  0  5 18  2 19 11 16
  21351625.398       24456.923 7
  22819786.477      -74006.533 6
  21170412.656      -17127.265 6
  23191096.523      -36866.967 6
  24397975.625      -47900.189 3
 91  3 13 23 16 56.0000000  0  5 18  2 19 11 16
  21351838.047       25574.399 7
  22819147.203      -77366.603 6
  21170262.891      -17903.419 6
  23190777.953      -38535.184 6
  24397562.000      -50070.642 3
 91  3 13 23 16 57.0000000  0  5 18  2 19 11 16
  21352051.594       26692.441 7
  22818507.156      -80726.261 6
  21170113.734      -18679.301 6
  23190461.781      -40202.696 6
  24397148.766      -52240.447 3
 91  3 13 23 16 58.0000000  0  5 18  2 19 11 16
  21352262.992       27810.918 7
  22817868.617      -84085.659 6
  21169968.672      -19455.049 7
  23190141.703      -41869.603 6
  24396738.313      -54409.733 3
